#timestamp,LO_Frequency,Hit,StdDev 
1552528815.0,286046991.9,Y
1552528815.9,286046991.9,P
1552528835.8,286047000.7,N
1552528855.6,286047002.2,N
1552528875.5,286047004.3,N
1552528895.3,286047004.5,N
1552528915.1,286047008.6,N
1552528935.9,286047010.6,N
1552528955.7,286047010.5,N
1552528975.5,286047010.0,N
1552528995.4,286047012.3,N
1552529015.2,286047011.0,N
1552529035.0,286047013.4,N
1552529035.9,286047013.4,N
1552529055.8,286047014.8,N
1552529075.6,286047014.7,N
1552529095.5,286047014.7,N
1552529115.3,286047016.8,N
1552529135.1,286047016.2,N
1552529155.9,286047017.6,N
1552529175.7,286047019.8,N
1552529195.5,286047021.4,N
1552529215.4,286047018.9,N
1552529235.2,286047019.0,N
1552529255.1,286047021.7,N
1552529256.0,286047021.7,N
1552529275.8,286047021.7,N
1552529295.6,286047023.6,N
1552529315.5,286047020.8,N
1552529335.3,286047023.2,N
1552529355.1,286047022.5,N
1552529375.9,286047023.5,Y
1552529395.7,286047008.9,P
1552529445.6,286047011.8,E
1552529455.5,286047007.3,N
1552529475.3,286047000.6,P
1552529495.2,286047000.9,N
1552529515.9,286047000.7,N
1552529535.7,286047001.6,N
1552529555.6,286047001.7,N
1552529575.4,286047002.3,N
1552529595.2,286047000.7,N
1552529615.1,286047000.8,N
1552529616.0,286047000.8,N
1552529635.8,286047001.3,N
1552529655.7,286047004.2,N
1552529675.5,286047004.0,N
1552529695.3,286047001.7,N
1552529715.2,286047003.7,N
1552529735.9,286047003.9,N
1552529755.7,286047004.0,N
1552529775.6,286047003.6,N
1552529795.4,286047004.2,N
1552529815.2,286047003.4,N
1552529835.1,286047007.2,Y
1552529836.0,286047007.2,P
1552529855.8,286047003.2,N
1552529905.7,286047007.4,E
1552529915.6,286047004.3,N
1552529935.5,286046997.7,P
1552529955.3,286046997.7,N
1552529975.1,286046997.9,N
1552529995.9,286046997.9,N
1552530015.7,286046994.9,N
1552530035.5,286046995.5,N
1552530055.4,286046996.7,N
1552530075.2,286046997.4,N
1552530095.0,286046999.1,N
1552530096.0,286046999.1,N
1552530115.8,286046996.7,N
1552530135.6,286046998.9,N
1552530155.5,286046996.7,N
1552530175.3,286046999.1,N
1552530195.1,286046999.6,N
1552530215.9,286046998.8,N
1552530235.7,286046998.3,N
1552530255.5,286046997.0,N
1552530275.4,286046997.3,N
1552530295.2,286046995.0,N
1552530315.1,286046996.8,N
1552530316.0,286046996.8,N
1552530335.8,286046997.5,N
1552530355.6,286046997.2,N
1552530375.5,286046997.6,N
1552530395.3,286046999.1,N
1552530415.1,286046999.3,N
1552530435.9,286046998.8,N
1552530455.7,286047011.9,Y
1552530475.6,286047002.8,P
1552530495.4,286047000.0,N
1552530515.2,286046999.8,N
1552530535.1,286047003.9,N
1552530536.0,286047003.9,N
1552530555.8,286047003.7,N
1552530575.6,286047002.7,N
1552530595.5,286046999.8,N
1552530615.3,286047000.4,N
1552530635.2,286047002.8,N
1552530655.9,286047000.4,N
1552530675.7,286047000.9,N
1552530695.6,286047000.6,N
1552530715.4,286047001.2,N
1552530735.2,286047000.7,N
1552530755.1,286047000.5,N
1552530756.0,286047000.5,N
1552530775.8,286047000.4,N
1552530795.7,286047000.9,N
1552530815.5,286046998.4,N
1552530835.3,286046999.8,N
1552530855.2,286046999.9,N
1552530875.0,286047000.1,N
1552530875.9,286047000.1,N
1552530895.7,286047000.5,N
1552530915.6,286046999.8,N
1552530935.4,286046999.9,N
1552530955.3,286047002.4,N
1552530975.1,286046999.9,N
1552530976.0,286046999.9,N
1552530995.8,286047002.5,N
1552531015.7,286046999.7,N
1552531035.5,286047000.7,N
1552531055.3,286047000.6,N
1552531075.2,286047000.9,N
1552531095.0,286047000.0,N
1552531095.9,286047000.0,N
1552531115.8,286047000.6,N
1552531135.6,286047000.0,N
1552531155.4,286047001.0,N
1552531175.3,286047000.1,N
1552531195.1,286046999.8,N
1552531215.8,286046999.8,N
1552531235.7,286047000.4,N
1552531255.5,286047000.4,N
1552531275.4,286047000.4,N
1552531295.2,286047000.2,N
1552531315.0,286047002.4,Y
1552531315.9,286047002.4,P
1552531335.8,286046999.7,N
1552531355.6,286047002.8,N
1552531375.4,286047002.5,N
1552531395.3,286047001.6,N
1552531415.1,286047002.4,N
1552531435.8,286047001.8,N
1552531455.7,286047003.6,Y
1552531475.5,286047003.3,P
1552531495.4,286047003.8,P
1552531515.2,286047003.0,P
1552531535.0,286047004.2,Y
1552531535.9,286047004.2,P
1552531555.8,286046998.1,P
1552531575.6,286047000.3,N
1552531595.5,286047000.7,N
1552531615.3,286046999.6,N
1552531635.1,286046999.2,N
1552531655.9,286047001.2,N
1552531675.7,286046996.6,N
1552531695.5,286046999.4,N
1552531715.4,286046999.3,N
1552531735.2,286046996.9,N
1552531755.0,286046996.8,N
1552531756.0,286046996.8,N
1552531775.8,286046997.4,N
1552531795.6,286046999.0,N
1552531815.5,286046999.5,N
1552531835.3,286046997.1,N
1552531855.1,286046998.0,N
1552531875.9,286046997.2,N
1552531895.7,286046996.8,N
1552531915.5,286046999.6,N
1552531935.4,286046996.6,N
1552531955.2,286046997.2,N
1552531975.1,286046995.2,N
1552531976.0,286046995.2,N
1552531995.8,286046995.1,N
1552532015.6,286046995.1,N
1552532035.5,286046995.5,N
1552532055.3,286046995.8,N
1552532075.1,286046997.4,N
1552532095.9,286046997.5,N
1552532115.7,286046997.3,N
1552532135.6,286046995.1,N
1552532155.4,286046997.9,N
1552532175.2,286046996.7,N
1552532195.1,286046997.0,N
1552532196.0,286046997.0,N
1552532215.8,286046997.7,N
1552532235.6,286046998.3,N
1552532255.5,286046996.7,N
1552532275.3,286046997.8,N
1552532295.1,286046997.2,N
1552532315.9,286046997.6,N
1552532335.7,286046995.3,Y
1552532355.6,286046998.6,P
1552532375.4,286047001.2,N
1552532395.2,286046999.7,N
